Location: Copper Breaks State Park
(34.1132°N, 99.7492°W)
Time: 14:01:06
(UTC-05:00)

Daily predictions for brighter satellites

Satellite Brightness Start Highest point End
(mag) Time Altitude Azimuth Time Altitude Azimuth Time Altitude Azimuth
MSX 3.9 19:42:41 10° SSE 19:48:24 86° ENE 19:54:11 10° NNW
Helios 1A 4.4 19:53:09 10° ESE 19:56:06 19° ENE 19:59:03 10° NNE
Cosmos 2346 Rocket 4.4 19:53:12 10° N 19:59:15 70° E 20:05:15 10° SSE
CZ-2C R/B 4.1 19:55:49 10° SSW 20:00:28 39° W 20:05:02 10° NNW
Cosmos 2219 Rocket 4.5 19:56:15 10° WSW 20:00:56 27° WNW 20:05:40 10° N
SL-19 R/B 4.3 19:56:33 10° SSE 20:02:05 72° ENE 20:07:53 10° N
SeaSat 1 4.1 20:00:16 10° ENE 20:02:42 14° ESE 20:05:08 10° SE
Cosmos 1441 Rocket 3.5 19:59:53 10° NNW 20:03:37 71° W 20:07:19 10° S
COSMO-SKYMED 1 3.5 20:01:03 10° N 20:05:17 53° WNW 20:09:29 10° SSW
Cosmos 1378 3.6 20:02:06 10° N 20:05:36 38° E 20:09:05 10° SSE
SEDSat Delta rocket 4.2 19:59:18 10° WSW 20:05:52 65° S 20:12:12 12° E
Meteor 1-22 Rocket 4.0 20:01:39 10° S 20:07:02 77° E 20:12:19 10° NNE
ALOS 3.8 20:04:48 10° ESE 20:07:50 17° ENE 20:10:53 10° NNE
Meteor 1-28 Rocket 3.1 20:04:58 10° NNE 20:08:41 70° ESE 20:12:21 10° S
OAO 3 Rocket 3.2 20:04:10 10° W 20:08:55 90° NNE 20:13:21 12° E
Cosmos 2278 Rocket 2.6 20:04:26 10° NNW 20:10:04 70° WSW 20:15:40 10° S
NOSS 3-2 (A) 3.5 20:06:16 10° SSW 20:12:16 85° WNW 20:18:45 10° NNE
Cosmos 2297 3.7 20:09:26 10° NNW 20:15:03 60° ENE 20:20:34 10° SSE
Cosmos 1707 3.6 20:12:25 10° NNW 20:16:11 53° W 20:19:55 10° S
SAR-Lupe-4 3.6 20:14:26 10° S 20:18:00 82° WSW 20:21:35 10° NNW
CZ-4C R/B 4.3 20:14:38 10° WSW 20:19:05 26° NW 20:23:58 10° N
FREGAT/IRIS 2.6 20:16:38 10° SSE 20:19:41 60° ENE 20:22:45 10° N
SJ-6B 2.8 20:16:47 10° SSE 20:20:42 84° ENE 20:24:44 10° N
Meteor 1-24 Rocket 3.6 20:15:23 10° N 20:21:01 86° E 20:26:26 10° S
Cosmos 1437 3.6 20:22:30 10° NNW 20:25:42 54° W 20:28:53 10° S
Cosmos 1766 Rocket 3.9 20:21:48 10° N 20:25:56 41° E 20:30:02 10° SSE
Cosmos 2034 Rocket 4.0 20:21:03 10° S 20:27:07 58° E 20:33:17 10° NNE
Cosmos 2369 Rocket 4.2 20:27:42 10° NE 20:28:20 10° NE 20:28:54 10° ENE
Cosmos 1603 4.0 20:23:03 10° S 20:28:28 46° ESE 20:33:55 10° NE
Cosmos 1464 Rocket 4.0 20:23:20 10° S 20:29:36 84° E 20:35:50 10° N
Cosmos 1758 3.4 20:26:14 10° S 20:30:11 51° E 20:34:10 10° NNE
Timation 1 Rocket 4.4 20:27:24 10° NNW 20:33:18 61° ENE 20:39:10 10° SE
Cosmos 1269 Rocket 4.4 20:32:34 10° S 20:37:28 40° ESE 20:42:23 10° NNE
GPS 2-04 Rocket1 3.1 20:36:51 10° SW 20:40:08 38° SSE 20:41:01 32° ESE
Spot 2 Rocket 3.4 20:35:10 10° SSE 20:40:10 75° ENE 20:45:13 10° N
Cosmos 1048 Rocket 4.5 20:36:55 10° SSE 20:41:48 38° E 20:46:38 10° NE
Cosmos 1076 Rocket 3.4 20:38:09 10° N 20:42:30 84° E 20:46:51 10° S
Cosmos-2242 2.9 20:39:16 10° S 20:43:33 68° E 20:47:55 10° NNE
Helios 1B rocket 2.5 20:40:08 10° N 20:44:15 77° WNW 20:48:20 10° SSW
FengYun 1-2 T 4.2 20:38:55 10° SSE 20:44:21 62° ENE 20:49:46 10° N
ASTEX 1 3.7 20:42:20 10° NNE 20:46:59 41° E 20:51:34 10° SSE
SL-8 R/B 3.6 20:42:21 10° SW 20:47:05 67° SE 20:49:42 26° ENE
NOSS 3-3 (A) 4.5 20:40:16 10° NNW 20:47:48 67° ENE 20:53:58 18° SE
NOSS 3-3 (C) 4.5 20:40:22 10° NNW 20:47:54 66° ENE 20:54:01 18° SE
Cosmos 2056 Rocket 4.3 20:43:22 10° NNW 20:48:40 54° WSW 20:53:54 10° S
CENTAUR R/B 2.9 20:44:21 10° S 20:49:34 34° ESE 20:53:12 19° ENE
NOSS 3-2 (C) 4.1 20:44:07 10° SW 20:50:01 57° NW 20:56:25 10° NNE
Cosmos 1674 4.5 20:50:25 10° NNE 20:51:56 19° NE 20:51:56 19° NE
Cosmos 1842 Rocket 4.0 20:55:05 37° ENE 20:55:05 37° ENE 20:58:35 10° NNE
ASTRO E2 2.9 20:53:47 10° W 20:57:45 58° S 20:58:31 48° SE
In-Cosmos 22 4.2 20:52:24 10° N 20:58:13 88° W 21:03:56 10° S
Cosmos 1408 Rocket 3.8 20:56:18 10° NNW 21:00:38 67° W 21:04:53 10° S
Abrixas 2.7 20:59:29 10° SW 21:02:06 65° WSW 21:02:06 65° WSW
Meteor 1-21 Rocket 4.0 20:58:47 10° N 21:04:21 76° E 21:09:02 15° SSE
Atlas Centaur 2 3.6 20:56:33 10° W 21:04:38 47° SSW 21:08:50 26° SE
ATLAS CENTAUR R/B 3.6 21:04:02 10° WNW 21:07:13 22° WSW 21:10:12 10° SSW
Resurs 01 Rocket 2.4 21:03:35 10° S 21:07:54 51° W 21:12:15 10° NNW
Resurs 1-3 3.9 21:04:58 10° S 21:09:19 66° WSW 21:13:41 10° NNW
ATLAS 5 CENTAUR R/B 3.3 21:09:41 10° WSW 21:14:02 35° NW 21:18:42 10° NNE
CZ-2D R/B 3.4 21:18:23 67° N 21:18:23 67° N 21:21:49 10° N
ISS -1.2 21:20:58 10° SW 21:22:14 22° SW 21:22:14 22° SW
Cosmos 1953 4.4 21:21:33 10° SW 21:25:00 28° WNW 21:28:28 10° NNW
Cosmos 1743 Rocket 3.7 21:23:51 10° N 21:28:17 73° W 21:28:39 68° SW
BREEZE-M TANK 4.0 21:23:39 10° WNW 21:28:31 27° SW 21:29:14 25° SSW
Gbstr 26 Del rocket 3.6 21:27:51 10° SW 21:31:12 54° SSW 21:31:12 54° SSW
H-2A R/B 3.7 21:36:26 46° NW 21:36:26 46° NW 21:39:30 10° NNW
OAO 1 Rocket 4.4 21:34:41 10° W 21:39:51 78° NW 21:39:51 78° NW
SeaSat 1 2.8 21:35:37 10° NNE 21:40:30 61° WNW 21:45:21 10° SW
Nadezhda 4 Rocket 4.5 21:37:37 10° NNW 21:43:46 59° W 21:48:44 16° SSW
ALOS 3.5 21:42:51 25° SSW 21:44:56 39° W 21:49:18 10° NNW
Cosmos 2142 Rocket 4.4 21:47:13 41° S 21:49:40 86° W 21:56:06 10° N
Cosmos 1092 Rocket 4.0 21:43:41 10° N 21:49:53 74° W 21:51:19 54° SSW
SEDSat Delta rocket 4.0 21:45:45 10° W 21:52:20 68° SSW 21:52:20 68° SSW
OAO 3 Rocket 4.1 21:47:45 10° W 21:51:10 47° WNW 21:51:10 47° WNW
Cosmos 1634 Rocket 4.2 21:53:56 10° SSW 22:00:08 65° W 22:06:20 10° N
Cosmos 1943 4.3 22:03:45 10° SW 22:14:48 10° N 22:07:18 37° WSW
Cosmos 2369 Rocket 3.4 22:07:31 10° NNW 22:10:43 35° NNW 22:10:43 35° NNW
Cosmos 1943 Rocket 4.3 22:15:27 10° N 22:16:47 17° N 22:16:47 17° N
CENTAUR R/B 3.8 22:34:33 10° WSW 22:40:03 36° NW 22:40:44 35° NW
